Home > Weather > Sachs Harbour > Past weeks

Flag for Canada Past Weather in Sachs Harbour, Northwest Territories, Canada — Yesterday and Last 2 Weeks

Now
41 °F

Quite cool.


Feels Like: 36 °F
Forecast: 35 / 42 °F
Wind: 7 mph from North

Location: Cape Parry

Current Time: Aug 26, 2016 at 1:05:52 AM

Latest Report: Aug 26, 2016 at 12:00 AM


Visibility: 3 mi

Pressure: 30.01 "Hg

Humidity: 87%

Dew Point: 37 °F

Location of Sachs HarbourLocation

Past Weather in Sachs Harbour — Graph

°F

Sachs Harbour Temperature Yesterday

Maximum temperature yesterday: 45 °F (at 11:00 AM)
Minimum temperature yesterday: 39 °F (at 12:00 AM)
Average temperature yesterday: 42 °F

High & Low Weather Summary for the Past Weeks

 TemperatureHumidityPressure
High70 °F (Aug 14, 5:00 PM)100% (Aug 11, 1:00 AM)30.28 "Hg (Aug 11, 1:00 AM)
Low36 °F (Aug 17, 7:00 AM)57% (Aug 14, 5:00 PM)29.50 "Hg (Aug 14, 8:00 PM)
Average45 °F89%29.85 "Hg
* Reported Aug 11 12:00 AM — Aug 26 12:00 AM, Sachs Harbour, Weather by CustomWeather, © 2016

Note: Actual official high and low records may vary slightly from our data, if they occured in-between our weather recording intervals... More about our weather records

Advertising

Sachs Harbour Weather History for the Previous 24 Hours

Scroll right to see more
 ConditionsComfort  
Time TempWeatherWind HumidityBarometerVisibility
12:00 AM
Fri, Aug 26
41 °FQuite cool.7 mph87%30.01 "Hg3 mi
11:00 PM
Thu, Aug 25
41 °FQuite cool.7 mph93%30.02 "Hg3 mi
10:00 PM41 °FQuite cool.7 mph93%30.02 "Hg3 mi
9:00 PM41 °FQuite cool.6 mph93%30.03 "Hg3 mi
8:00 PM43 °FQuite cool.6 mph87%30.04 "Hg3 mi
7:00 PM43 °FQuite cool.6 mph93%30.05 "Hg3 mi
6:00 PM43 °FQuite cool.7 mph87%30.07 "Hg3 mi
5:00 PM45 °FQuite cool.6 mph87%30.07 "Hg4 mi
4:00 PM45 °FQuite cool.5 mph87%30.08 "Hg3 mi
3:00 PM45 °FQuite cool.7 mph81%30.09 "Hg4 mi
2:00 PM45 °FQuite cool.6 mph76%30.10 "Hg3 mi
1:00 PM45 °FQuite cool.5 mph61%30.11 "Hg3 mi
12:00 PM45 °FQuite cool.3 mph61%30.12 "Hg4 mi
11:00 AM45 °FQuite cool.2 mph71%30.12 "Hg3 mi
10:00 AM43 °FQuite cool.5 mph71%30.14 "Hg3 mi
9:00 AM41 °FQuite cool.2 mph76%30.15 "Hg3 mi
8:00 AM41 °FQuite cool.7 mph81%30.16 "Hg3 mi
7:00 AM41 °FQuite cool.7 mph81%30.17 "Hg3 mi
6:00 AM41 °FQuite cool.8 mph81%30.18 "Hg3 mi
5:00 AM41 °FQuite cool.7 mph76%30.19 "Hg3 mi
4:00 AM39 °FChilly.12 mph87%30.19 "Hg3 mi
3:00 AM39 °FChilly.9 mph87%30.20 "Hg3 mi
2:00 AM39 °FChilly.12 mph87%30.20 "Hg3 mi
1:00 AM39 °FChilly.13 mph87%30.20 "Hg3 mi
Weather by CustomWeather, © 2016

See weather overviewHow to use our weather pages